Regional Weather Roundup
Issued by NWS

Home | Current Version | Previous Version | Graphics & Text | Print | Product List | Glossary On
Versions: 1 2 3 4 5 6 7 8 9 10 11 12 13 14 15 16 17 18 19 20 21 22 23 24 25 26 27 28 29 30 31 32 33 34 35 36 37 38 39 40 41 42 43 44 45 46 47 48 49 50
000
ASUS43 KOAX 281010
RWRNE

WEATHER ROUNDUP FOR NEBRASKA
NATIONAL WEATHER SERVICE OMAHA NE
500 AM CDT WED JUN 28 2017

NOTES: SATELLITE DATA IS BEING USED TO AUGMENT CLOUD COVER ABOVE
       12000 FEET.
       "FAIR" INDICATES FEW OR NO CLOUDS BELOW 12,000 FEET WITH NO
       SIGNIFICANT WEATHER AND/OR OBSTRUCTIONS TO VISIBILITY.

  * THESE STATIONS DO NOT REPORT WEATHER SUCH AS RAIN...SNOW OR FOG.

NEZ001>004-019>022-054>056-281100-
NEBRASKA PANHANDLE

CITY           SKY/WX    TMP DP  RH WIND       PRES   REMARKS
SCOTTSBLUFF    CLEAR     54  48  80 NW7       29.86S
ALLIANCE       CLEAR     51  49  92 W7        29.83R
CHADRON        CLEAR     57  49  74 SW6       29.80R
GORDON         FAIR      56  52  86 W7        29.78S
KIMBALL        CLEAR     56  45  65 NW12      29.92S
SIDNEY         CLEAR     50  47  89 NW9       29.88S
$$

NEZ057>060-069>072-079>082-281100-
SOUTHWEST NEBRASKA

CITY           SKY/WX    TMP DP  RH WIND       PRES   REMARKS
NORTH PLATTE   CLEAR     59  57  93 N3        29.74F
IMPERIAL       CLEAR     56  53  90 W7        29.78S
LEXINGTON      CLOUDY    63  60  91 NW6       29.74R
MCCOOK         CLEAR     66  60  81 SW5       29.74F
OGALLALA       CLEAR     55  54  94 W6        29.79S
$$

NEZ005>010-023>029-035>040-094-281100-
NORTH CENTRAL NEBRASKA

CITY           SKY/WX    TMP DP  RH WIND       PRES   REMARKS
VALENTINE      CLEAR     61  54  77 SW10      29.71R
AINSWORTH      CLEAR     61  56  83 W12       29.70S
BROKEN BOW     CLEAR     58  56  93 CALM      29.71R
O`NEILL        CLOUDY    62  59  88 W8        29.68F
ORD            PTCLDY    63  59  87 S5        29.68R
THEDFORD       CLEAR     58  54  85 W5        29.76R
$$

NEZ041-046>049-061>064-073>077-083>087-281100-
SOUTH CENTRAL NEBRASKA

CITY           SKY/WX    TMP DP  RH WIND       PRES   REMARKS
GRAND ISLAND   CLOUDY    65  65 100 CALM      29.70R
AURORA         PTCLDY    67  65  94 CALM      29.70R
HASTINGS       MOCLDY    69  64  84 SE9       29.70F
HEBRON         CLOUDY    75  66  74 S9        29.72F
HOLDREGE       CLOUDY    67  60  76 SW3       29.71S
KEARNEY *      MOCLDY    66  63  88 CALM      29.71R
YORK           CLOUDY    66  64  94 CALM      29.70R
$$

NEZ011>018-030>034-042>045-281100-
NORTHEAST NEBRASKA

CITY           SKY/WX    TMP DP  RH WIND       PRES   REMARKS
NORFOLK        CLOUDY    65  62  90 S10       29.64F
ALBION         CLOUDY    65  63  91 S6        29.67R
BLAIR          CLOUDY    65  64  93 SE6       29.69F
FREMONT        CLOUDY    64  62  91 SE9       29.67F
TEKAMAH        CLOUDY    66  63  90 SE8       29.66F
WAYNE          CLOUDY    65  65  99 SE8       29.64F
$$

NEZ050>053-065>068-078-088>093-281100-
SOUTHEAST NEBRASKA

CITY           SKY/WX    TMP DP  RH WIND       PRES   REMARKS
LINCOLN        LGT RAIN  66  63  90 SE13      29.69F
OMAHA EPPLEY   CLOUDY    67  63  87 S22G30    29.74R
BEATRICE       CLOUDY    71  69  93 SE9       29.78F
FALLS CITY     TSTM      69  67  93 N13       29.83S
NEBRASKA CITY  TSTM      64  64 100 E5        29.83F
PLATTSMOUTH    CLOUDY    63  62  96 SE16G24   29.76F THUNDER
$$

NEZ044-045-051>053-067-281100-
OMAHA AREA

CITY           SKY/WX    TMP DP  RH WIND       PRES   REMARKS
OMAHA EPPLEY   CLOUDY    67  63  87 S22G30    29.74R
BLAIR          CLOUDY    65  64  93 SE6       29.69F
FREMONT        CLOUDY    64  62  91 SE9       29.67F
MILLARD        CLOUDY    65  64  96 S5        29.74F
OFFUTT AFB     MOCLDY    64  63  94 S24G31    29.75F THUNDER
PLATTSMOUTH    CLOUDY    63  62  96 SE16G24   29.76F THUNDER
WAHOO          FAIR      64  62  92 S13       29.70F
$$



USA.gov is the U.S. government's official web portal to all federal, state and local government web resources and services.